Regional Weather Roundup
Issued by NWS

Home | Current Version | Previous Version | Text Only | Print | Product List | Glossary On
Versions: 1 2 3 4 5 6 7 8 9 10 11 12 13 14 15 16 17 18 19 20 21 22 23 24 25 26 27 28 29 30 31 32 33 34 35 36 37 38 39 40 41 42 43 44 45 46 47 48 49 50
000
ASUS42 KTBW 022017
RWRFL
FLORIDA REGIONAL WEATHER ROUNDUP
NATIONAL WEATHER SERVICE TAMPA BAY RUSKIN FL
400 PM EDT SUN AUG 02 2015

NOTE: "FAIR" INDICATES FEW OR NO CLOUDS BELOW 12,000 FEET WITH NO
SIGNIFICANT WEATHER AND/OR OBSTRUCTIONS TO VISIBILITY.


FLZ001>010-012>015-112-114-115-022100-
PANHANDLE FLORIDA

CITY           SKY/WX    TMP DP  RH WIND       PRES   REMARKS
PENSACOLA      SUNNY     93  70  46 CALM      29.85F HX  99
PENSACOLA NAS  MOSUNNY   92  74  55 VRB7      29.85F HX 101
MILTON NAS     SUNNY     94  70  45 CALM      29.85F HX 100
CRESTVIEW      SUNNY     95  73  48 NE10      29.87F HX 104
DUKE FIELD     FAIR      94  69  43 NE9       29.85F HX  99
VALPARAISO     MOSUNNY   96  71  45 NE10      29.84F HX 103
MARY ESTHER    PTSUNNY   94  71  47 VRB3      29.84  HX 100
PANAMA CITY    FAIR      91  74  57 N10G17    29.83F HX 100
TYNDALL AFB    PTSUNNY   90  75  62 N8        29.84F HX 100
APALACHICOLA   MOSUNNY   92  75  57 N8        29.82F HX 103

STATION/POSITION SKY/WX   TEMP    WIND        PRES    WAVE   SWELL
                          AIR SEA DIR/SP/G            HT/PER HT/PER
                          (F)     (DEG/KT/KT) (MB)    (FT/S) (FT/S)
30.1N   87.6W              86 89  250/  4/  6 1010.8F   1/ 5   2/ 5
29.2N   88.2W              87 90  280/  4/  4 1012.1F   1/ 3   2/ 5
28.8N   86.0W              85 87  330/ 10/ 12 1011.7F   4/ 6   3/ 6
PANAMA CITY BEAC           89 86   60/  9/ 14 1010.7F
CAPE SAN BLAS    NOT AVBL
TOWER C                    82     270/  9/ 10 1010.0F
28.5N   84.5W              82 84  240/ 23/ 29 1010.1F   8/ 8

$$
FLZ011-016>038-118-127-128-134-139-239-022100-
NORTH FLORIDA

CITY           SKY/WX    TMP DP  RH WIND       PRES   REMARKS
MARIANNA       PTSUNNY   90  74  59 N9        29.84F HX  99
TALLAHASSEE    PTSUNNY   92  73  53 NE14G20   29.81F HX 100
PERRY          CLOUDY    81  81 100 N8        29.82R
CROSS CITY       N/A     86  81  85 S7        29.80F HX 102
LAKE CITY      CLOUDY    77  77 100 E3        29.85F
GAINESVILLE    PTSUNNY   82  73  74 S13G21    29.85F
MAYPORT NAS    RAIN      77  74  90 S14G25    29.89F FOG
JACKSONVILLE   CLOUDY    81  74  79 SE12      29.87F
JAX NAS        PTSUNNY   88  72  58 S13       29.88F
JAX CRAIG      LGT RAIN  78  74  87 S13       29.88F
JAX CECIL      MOSUNNY   77  73  88 S6        29.88F
FERNANDINA BEA CLOUDY    79  72  78 S8        29.89R
ST AUGUSTINE   CLOUDY    84  70  62 SW14G29   29.89F HAZE

STATION/POSITION SKY/WX   TEMP    WIND        PRES    WAVE   SWELL
                          AIR SEA DIR/SP/G            HT/PER HT/PER
                          (F)     (DEG/KT/KT) (MB)    (FT/S) (FT/S)
SHELL POINT                86     360/  8/ 14   N/A
KEATON BEACH               81      70/  9/ 10 1008.6F
CEDAR KEY                  80     230/ 15/ 22 1010.4F
FERNANDINA                 84 85  150/  8/ 16 1011.4F
30.7N   81.3W                 83                N/A     3/ 6   2/11
MAYPORT                    78 83  190/  7/ 14 1013.0R
31.4N   80.9W              81 84  180/ 10/ 12 1012.5F   3/ 6   3/ 6
ST AUGUSTINE               86 82  220/ 12/ 17 1012.6S

$$
FLZ040-043>046-052-053-057-058-063-144-022100-
INTERIOR CENTRAL FLORIDA

CITY           SKY/WX    TMP DP  RH WIND       PRES   REMARKS
OCALA          PTSUNNY   84  73  70 S21G29    29.88F
THE VILLAGES     N/A     84  84 100 SE18G25   29.79F HX 104
LEESBURG       CLOUDY    84  72  67 S12G22    29.91F
SANFORD        LGT RAIN  74  70  87 SW10      29.93F
ORLANDO EXEC   LGT RAIN  74  72  93 SW8       29.94F
ORLANDO INTL   LGT RAIN  75  72  90 SW6       29.95F
KISSIMMEE      PTSUNNY   75  73  94 SW7       29.95F
WINTER HAVEN   CLOUDY    77  73  87 S9        29.96F
BARTOW         CLOUDY    77  72  83 SW7       29.96F
OKEECHOBEE     CLOUDY    79  64  61 W15G23    29.98F

$$
FLZ041-047-054-059-064-141-147-022100-
EAST CENTRAL FLORIDA

CITY           SKY/WX    TMP DP  RH WIND       PRES   REMARKS
ORMOND BEACH   MOSUNNY  N/A N/A N/A SW17G23   29.92F
DAYTONA BEACH  PTSUNNY   79  67  66 S10       29.93F
DELAND           N/A     77  70  78 S12       29.93F
JFK SPACE CTR  LGT RAIN  76  69  80 SE6G16    29.97R
TITUSVILLE     PTSUNNY   75  68  78 W12G17    29.98
CAPE CANAVERAL LGT RAIN  73  68  84 SW6       29.96F
PATRICK AFB    PTSUNNY   75  72  88 S15       29.97R
MELBOURNE      LGT RAIN  73  70  90 SW7       29.97F FOG
VERO BEACH     HVY RAIN  79  69  71 NW21G29   29.98R
FT PIERCE      RAIN      81  70  69 S18G29    29.97R
STUART         PTSUNNY   77  72  83 SW16G28   30.00R

STATION/POSITION SKY/WX   TEMP    WIND        PRES    WAVE   SWELL
                          AIR SEA DIR/SP/G            HT/PER HT/PER
                          (F)     (DEG/KT/KT) (MB)    (FT/S) (FT/S)
28.5N   80.2W              84 83  160/ 16/ 17 1014.1F
28.9N   78.5W              83 84  170/ 14/ 16 1015.6F
TRIDENT PIER               79 79  240/ 12/ 23 1015.2R
28.4N   80.5W                 78                N/A     2/11
27.5N   80.2W                 78                N/A     2/ 3

$$
FLZ050-056-061-142-242-148-248-149-249-151-251-155-255-
160-260-022100-
WEST CENTRAL FLORIDA

CITY           SKY/WX    TMP DP  RH WIND       PRES   REMARKS
CRYSTAL RIVER  CLOUDY    77  73  88 S8        29.88F
INVERNESS      MOCLDY    81  73  78 SW13G23   29.90F
BROOKSVILLE    PTSUNNY   81  74  79 SW16G25   29.91F
ZEPHYRHILLS    FAIR      77  77 100 S6        29.93F
CLEARWATER     CLOUDY    82  70  66 SW20G28   29.92F
TAMPA INTL     CLOUDY    82  71  69 SW17G28   29.92F
TAMPA EXEC     CLOUDY    81  72  74 MISG        N/A
PLANT CITY     DRIZZLE   79  73  83 SW13      29.96F
MACDILL AFB    CLOUDY    82  75  79 SW15G25   29.93F
PETER O KNIGHT CLOUDY    82  72  69 SW13G21   29.93F
ST PETERSBURG  CLOUDY    82  69  64 W20G31    29.91F
SARASOTA       CLOUDY    83  71  67 W18G25    29.94F
VENICE         FAIR      82  72  69 W13G18    29.97F

STATION/POSITION SKY/WX   TEMP    WIND        PRES    WAVE   SWELL
                          AIR SEA DIR/SP/G            HT/PER HT/PER
                          (F)     (DEG/KT/KT) (MB)    (FT/S) (FT/S)
CEDAR KEY                  80     230/ 15/ 22 1010.4F
28.5N   84.5W              82 84  240/ 23/ 29 1010.1F   8/ 8
27.3N   84.2W                 83                N/A     9/ 7
CLEARWATER BEACH           82 82  230/ 25/ 30 1013.6F
MIDDLE TAMPA BAY           81     260/ 24/ 28 1013.9F
VENICE                     83 85  240/ 15/ 17 1014.2S

$$
FLZ066-069-070-075>078-162-262-165-265-022100-
SOUTHWEST FLORIDA AND KEYS

CITY           SKY/WX    TMP DP  RH WIND       PRES   REMARKS
PUNTA GORDA    LGT RAIN  81  74  79 W13G26    29.99R
FT MYERS       MOSUNNY   89  74  60 W17       29.95S HX  98
SOUTHWEST INTL MOSUNNY   88  73  61 W10       29.95F HX  95
NAPLES         MOSUNNY   90  79  70 W12       29.95F HX 106
MARCO ISLAND   MOCLDY    91  75  59 W10G17    29.95S HX 102
MARATHON       MOSUNNY   92  79  65 S8        29.95F HX 108
KEY WEST NAS   PTSUNNY   90  75  61 SW9       29.95F HX 100
KEY WEST INTL  SUNNY     88  75  65 SW8       29.96F HX  97

STATION/POSITION SKY/WX   TEMP    WIND        PRES    WAVE   SWELL
                          AIR SEA DIR/SP/G            HT/PER HT/PER
                          (F)     (DEG/KT/KT) (MB)    (FT/S) (FT/S)
VENICE                     83 85  240/ 15/ 17 1014.2S
NAPLES                        87              1015.6F
26.0N   85.6W              83 84  220/  6/  6 1014.2F   3/ 4   2/ 4
DRY TORTUGAS               87     270/  4/  5 1014.9F
NW FL BAY                  86     200/  1/  3 1015.0
SAND KEY                   86     330/  2/  5 1014.9
SOMBRERO KEY               86     210/  6/  8 1014.9F
LONG KEY                   87 90  210/  7/  8 1015.2F
MOLASSES REEF              86 87  210/  7/  9 1014.6F

$$
FLZ067-068-071>074-168-172>174-022100-
SOUTHEAST FLORIDA

CITY           SKY/WX    TMP DP  RH WIND       PRES   REMARKS
W PALM BEACH   CLOUDY    84  73  69 SW7       29.97F
FT LAUDER-EXEC CLOUDY    85  69  58 E5        29.95F
FT LAUDERDALE  LGT RAIN  86  77  74 E6        29.94F HX  97
POMPANO BEACH  LGT RAIN  84  71  65 SE5       29.95F
PEMBROKE PINES LGT RAIN  89  74  60 NE3       29.96F HX  98
OPA LOCKA      CLOUDY    91  73  55 SE10      29.95F HX  99
MIAMI          CLOUDY    88  74  63 SE12      29.96F HX  96
WEST KENDALL   PTSUNNY   92  73  53 S8        29.96F HX 100
HOMESTEAD      LGT RAIN  84  70  61 E17       29.96R

STATION/POSITION SKY/WX   TEMP    WIND        PRES    WAVE   SWELL
                          AIR SEA DIR/SP/G            HT/PER HT/PER
                          (F)     (DEG/KT/KT) (MB)    (FT/S) (FT/S)
PORT EVERGLADES            86     130/  8/ 13 1014.3F
VIRGINIA KEY               86 87  160/  9/ 12 1014.8F
LAKE WORTH                 86 83  210/  9/ 14 1014.9F
SETTLEMENT POINT           86     180/ 10/ 12 1016.0F

$$



USA.gov is the U.S. government's official web portal to all federal, state and local government web resources and services.